DG3RAP-11 Weather Reports


time (UTC)temp
C
wind
direction
speed
KPH
gust
KPH
rain 1hr
cm
rain 24hr
cm
rain mn
cm
humidity
%
barometer
mb
20260506050903 11 251 1.6 3.2 0.00 0.15 0.00 92 1007.5
20260506044503 10 255 1.6 6.4 0.00 0.15 0.00 93 1007.3
20260506043603 10 280 0.0 6.4 0.00 0.15 0.00 92 1007.4
20260506042703 10 315 0.0 6.4 0.00 0.15 0.00 93 1007.6
20260506041803 10 340 0.0 6.4 0.00 0.15 0.00 94 1007.5
20260506040903 10 37 3.2 6.4 0.00 0.15 0.00 95 1007.7
20260506040003 10 21 1.6 6.4 0.00 0.15 0.00 95 1007.4
20260506035403 10 341 0.0 6.4 0.00 0.15 0.00 95 1007.6
20260506034503 10 354 1.6 6.4 0.00 0.15 0.00 94 1007.6
20260506033603 10 273 3.2 6.4 0.00 0.15 0.00 93 1007.6
20260506032704 11 249 1.6 6.4 0.00 0.15 0.00 92 1007.3
20260506031803 11 247 3.2 6.4 0.00 0.15 0.00 93 1007.3
20260506030903 11 269 1.6 6.4 0.00 0.15 0.00 92 1007.3
20260506030003 11 263 3.2 6.4 0.00 0.15 0.00 92 1007.4
20260506025403 11 274 1.6 9.7 0.00 0.15 0.00 92 1007.4
20260506024503 11 264 6.4 12.9 0.00 0.15 0.00 91 1007.3
20260506023603 11 263 3.2 9.7 0.00 0.15 0.00 91 1007.1
20260506022703 11 281 3.2 12.9 0.00 0.15 0.00 91 1007.5
20260506021803 11 272 8.0 11.3 0.00 0.15 0.00 91 1007.6
20260506020903 11 285 4.8 9.7 0.00 0.15 0.00 93 1007.5
20260506020004 11 288 3.2 6.4 0.00 0.15 0.00 93 1007.7
20260506015403 11 282 1.6 6.4 0.00 0.15 0.00 94 1007.5
20260506014503 11 302 1.6 3.2 0.00 0.15 0.00 93 1007.6
20260506013603 11 304 1.6 6.4 0.00 0.15 0.00 94 1007.8
20260506012703 11 262 1.6 3.2 0.00 0.15 0.00 97 1007.7
20260506011803 11 250 0.0 3.2 0.00 0.15 0.00 97 1007.8
20260506010903 11 180 0.0 6.4 0.00 0.15 0.00 96 1007.9
20260506010003 11 234 1.6 3.2 0.00 0.15 0.00 96 1007.7
20260506005403 11 292 1.6 3.2 0.00 0.15 0.00 96 1007.9
20260506004503 11 247 0.0 3.2 0.00 0.15 0.00 96 1007.8
20260506003603 11 222 1.6 3.2 0.00 0.15 0.00 95 1007.7
20260506002703 12 243 1.6 3.2 0.00 0.15 0.00 94 1007.9
20260506001803 12 264 0.0 3.2 0.00 0.15 0.00 94 1008.0
20260506000903 12 292 0.0 3.2 0.00 0.15 0.00 94 1007.9
20260506000003 12 211 0.0 3.2 0.00 0.15 0.00 94 1008.3
20260505235403 12 169 1.6 3.2 0.00 0.15 0.00 94 1008.2
20260505234503 12 275 0.0 3.2 0.00 0.15 0.00 95 1008.4
20260505233603 11 238 1.6 3.2 0.00 0.15 0.00 95 1008.5
20260505232703 12 261 0.0 6.4 0.00 0.15 0.00 95 1008.2
20260505231803 12 269 3.2 6.4 0.00 0.15 0.00 95 1008.1
20260505230903 12 225 1.6 3.2 0.00 0.15 0.00 95 1008.1
20260505230003 12 225 0.0 3.2 0.00 0.15 0.00 95 1008.0
20260505225403 12 225 1.6 3.2 0.00 0.15 0.15 95 1008.1
20260505224503 12 225 0.0 3.2 0.00 0.15 0.15 94 1008.4
20260505223603 12 241 1.6 3.2 0.00 0.15 0.15 94 1008.2
20260505222703 12 273 3.2 11.3 0.00 0.15 0.15 93 1008.1
20260505221803 12 267 4.8 11.3 0.00 0.15 0.15 93 1008.2
20260505220903 12 274 4.8 6.4 0.00 0.15 0.15 95 1008.2
20260505220003 12 277 1.6 6.4 0.00 0.15 0.15 95 1008.1
20260505215403 12 275 3.2 6.4 0.00 0.15 0.15 96 1008.1
20260505214503 12 271 3.2 6.4 0.00 0.15 0.15 96 1008.0
20260505213603 12 283 3.2 6.4 0.00 0.15 0.15 96 1008.1
20260505212703 12 271 3.2 9.7 0.00 0.15 0.15 96 1008.3
20260505211803 12 274 3.2 9.7 0.00 0.15 0.15 96 1008.1
20260505210903 12 272 4.8 9.7 0.00 0.15 0.15 95 1007.5
20260505210003 12 279 6.4 9.7 0.00 0.15 0.15 94 1007.6
20260505205403 12 283 6.4 9.7 0.00 0.15 0.15 94 1007.6
20260505204503 12 285 4.8 12.9 0.00 0.15 0.15 93 1007.5
20260505203603 12 270 8.0 14.5 0.00 0.15 0.15 92 1007.4
20260505202703 12 292 6.4 14.5 0.00 0.15 0.15 92 1007.4
20260505201803 13 289 8.0 14.5 0.00 0.15 0.15 92 1007.3
20260505200903 13 280 8.0 12.9 0.00 0.15 0.15 92 1007.3
20260505200003 13 291 6.4 12.9 0.00 0.15 0.15 92 1006.9
20260505195403 13 277 6.4 12.9 0.00 0.15 0.15 91 1006.8
20260505194503 13 279 6.4 11.3 0.00 0.15 0.15 92 1007.0
20260505193603 13 275 8.0 11.3 0.00 0.15 0.15 91 1006.9
20260505192703 13 274 4.8 11.3 0.00 0.15 0.15 90 1006.6
20260505191803 13 281 4.8 12.9 0.00 0.15 0.15 88 1006.7
20260505190903 13 283 6.4 12.9 0.00 0.15 0.15 88 1006.5
20260505190003 13 290 3.2 9.7 0.00 0.15 0.15 90 1006.1
20260505185403 13 286 6.4 9.7 0.00 0.15 0.15 92 1006.5
20260505184503 13 261 3.2 6.4 0.00 0.15 0.15 92 1006.3
20260505183603 13 257 0.0 6.4 0.00 0.15 0.15 92 1006.0
20260505182703 13 302 3.2 3.2 0.00 0.15 0.15 93 1006.2
20260505181803 13 273 1.6 6.4 0.00 0.15 0.15 94 1006.0
20260505180903 13 82 3.2 9.7 0.00 0.15 0.15 95 1006.0
20260505180003 13 271 1.6 6.4 0.00 0.15 0.15 95 1005.9
20260505175403 13 288 3.2 9.7 0.00 0.15 0.15 94 1005.6
20260505174503 13 280 6.4 12.9 0.00 0.15 0.15 95 1005.7
20260505173603 13 26 3.2 9.7 0.03 0.15 0.15 93 1005.5
20260505172703 13 324 4.8 11.3 0.10 0.15 0.15 94 1005.7
20260505171803 13 294 4.8 11.3 0.13 0.15 0.15 93 1005.7
20260505170903 13 320 4.8 11.3 0.15 0.15 0.15 92 1006.0
20260505170003 13 37 4.8 17.7 0.15 0.15 0.15 92 1005.7
20260505165403 13 18 6.4 17.7 0.15 0.15 0.15 92 1005.7
20260505164503 13 274 4.8 25.7 0.15 0.15 0.15 91 1005.4
20260505163603 14 287 16.1 24.1 0.13 0.13 0.13 86 1005.7
20260505162703 15 288 9.7 20.9 0.05 0.05 0.05 83 1006.2
20260505161803 16 292 8.0 20.9 0.03 0.03 0.03 78 1006.2
20260505160903 16 290 3.2 24.1 0.00 0.00 0.00 74 1006.2
20260505152703 23 265 3.2 6.4 0.00 0.00 0.00 38 1004.5
20260505151803 23 276 3.2 9.7 0.00 0.00 0.00 37 1004.4
20260505150903 24 259 1.6 3.2 0.00 0.00 0.00 36 1004.6
20260505124503 24 279 6.4 9.7 0.00 0.00 0.00 31 1005.8
20260505123603 24 291 6.4 11.3 0.00 0.00 0.00 32 1005.8
20260505122703 23 54 3.2 12.9 0.00 0.00 0.00 31 1005.8
20260505121803 24 331 3.2 9.7 0.00 0.00 0.00 29 1006.0
20260505120903 25 314 3.2 6.4 0.00 0.00 0.00 27 1006.2
20260505120004 25 312 3.2 12.9 0.00 0.00 0.00 29 1006.0
20260505115403 25 315 6.4 12.9 0.00 0.00 0.00 31 1006.0
20260505114503 25 311 3.2 6.4 0.00 0.00 0.00 32 1006.3
20260505113603 24 297 4.8 17.7 0.00 0.00 0.00 33 1006.2
20260505112703 25 275 3.2 9.7 0.00 0.00 0.00 34 1006.4
20260505111803 24 334 1.6 12.9 0.00 0.00 0.00 34 1006.5
20260505110903 23 282 9.7 12.9 0.00 0.00 0.00 35 1006.7
20260505101803 21 271 3.2 11.3 0.00 0.00 0.00 43 1007.3
20260505100903 23 272 1.6 11.3 0.00 0.00 0.00 42 1007.3
20260505100003 23 284 3.2 6.4 0.00 0.00 0.00 43 1007.4
20260505095403 22 279 4.8 6.4 0.00 0.00 0.00 45 1007.5
20260505094503 22 269 3.2 11.3 0.00 0.00 0.00 45 1007.7
20260505093603 22 282 3.2 11.3 0.00 0.00 0.00 48 1007.7
20260505092703 21 274 4.8 11.3 0.00 0.00 0.00 49 1007.6
20260505091803 21 279 1.6 6.4 0.00 0.00 0.00 50 1007.7
20260505090903 21 298 3.2 9.7 0.00 0.00 0.00 50 1007.8
20260505090003 21 301 4.8 6.4 0.00 0.00 0.00 52 1008.1
20260505085403 21 66 1.6 6.4 0.00 0.00 0.00 53 1007.9
20260505084503 20 79 0.0 9.7 0.00 0.00 0.00 55 1007.9
20260505083603 20 85 4.8 9.7 0.00 0.00 0.00 56 1008.0
20260505082703 18 45 4.8 11.3 0.00 0.00 0.00 57 1007.9
20260505081803 20 48 3.2 6.4 0.00 0.00 0.00 56 1007.9
20260505080903 19 65 3.2 6.4 0.00 0.00 0.00 59 1008.3
20260505080003 20 41 1.6 6.4 0.00 0.00 0.00 57 1008.1
20260505075403 18 31 3.2 9.7 0.00 0.00 0.00 60 1008.0
20260505074503 17 55 4.8 9.7 0.00 0.00 0.00 66 1008.4
20260505073603 18 20 1.6 6.4 0.00 0.00 0.00 64 1008.4
20260505072703 19 345 1.6 6.4 0.00 0.00 0.00 60 1008.6
20260505071803 18 279 1.6 6.4 0.00 0.00 0.00 65 1008.5
20260505070903 17 277 3.2 6.4 0.00 0.00 0.00 65 1008.5
20260505070004 18 278 3.2 6.4 0.00 0.00 0.00 63 1008.5
20260505065403 17 285 4.8 6.4 0.00 0.00 0.00 65 1008.6
20260505064503 18 283 0.0 6.4 0.00 0.00 0.00 63 1008.6
20260505063603 16 316 3.2 6.4 0.00 0.00 0.00 68 1008.5
20260505062703 17 6 0.0 3.2 0.00 0.00 0.00 64 1008.6
20260505061803 16 10 1.6 3.2 0.00 0.00 0.00 68 1008.8
20260505060903 16 306 1.6 3.2 0.00 0.00 0.00 66 1008.6
20260505060003 15 301 3.2 6.4 0.00 0.00 0.00 72 1008.6